logo
App data

Pain Train 2

Shoot your way through 12 new gore packed levels, craft new weapons, earn 30 different weapon skins, beat multiple difficulty modes, and destroy all of the overlords. Pain Train is entering a space station near you, "All Aboard!
Store | Hub | SteamDB | Site
Developer: Virtual Top Publisher: VT Publishing
Genre: Action, Adventure, Indie, RPG, Strategy
Languages: English
Tags: Action (24), Gore (23), Indie (22), Violent (21), Adventure (21), RPG (20), Strategy (20), FPS (5)
Category: Single-player, Steam Achievements, Steam Trading Cards
Release date: Mar 16, 2017
Price: $0.69 90%
Score rank: 6% Userscore: 40% Old userscore: 43%
Owners: 0 .. 20,000
Players (experimental): 6,634
Followers: 170
Peak concurrent players yesterday: 10
Playtime in the last 2 weeks: 02:51 (average) 04:58 (median)
Playtime total: 03:44 (average) 04:01 (median)

Steam Spy is still in beta, so expect major bugs.

Owners data:

Access restricted.

This feature is only available to users with special access rights. Sorry.

If you want to proceed, you need to register or log in first and then back Steam Spy on Patreon. Look for Indie or Pro pledge.

Don't forget to use the same email as on Steam Spy!

Audience in 2 weeks:

Access restricted.

This feature is only available to users with special access rights. Sorry.

If you want to proceed, you need to register or log in first and then back Steam Spy on Patreon. Look for Indie or Pro pledge.

Don't forget to use the same email as on Steam Spy!

Peak daily concurrent players:

CCU data courtesy of SteamDB. Used with permission.

Hourly concurrent players:

YouTube:

The views data is based on top 50 videos uploaded last week. Actual number of views might be more than the number shown.

The displayed number of videos uploaded yesterday is limited to 50, so if there were more videos uploaded, the number will still show 50.

If the game has commonly used word as its name (like "FEAR" or "Volume") its number of Youtube views might be wrong.

Games similar to this one:

# Game Release date
Price
Score rank
(Userscore / Metascore)
Owners
Players
Playtime (Median)
1 Little Big Adventure 2 Oct 20, 2015 $1.9999% (98%)20,000 .. 50,0000%00:00 (00:00)
2 Militia Dec 2, 2015 $2.9999% (98%)0 .. 20,0000%00:00 (00:00)
3 Dungeon Warfare Nov 4, 2015 $3.3997% (97%)20,000 .. 50,0000%00:00 (00:00)
4 Seven Kingdoms: Ancient Adversaries Mar 22, 2016 $2.39N/A (N/A)0 .. 20,0000%00:00 (00:00)
5 Voodoo Vince: Remastered Apr 17, 2017 $14.9995% (96%/63%)0 .. 20,0000%00:00 (00:00)
6 Imperium Galactica Jan 19, 2017 $1.24N/A (N/A)0 .. 20,0000%00:00 (00:00)
7 Defend The Highlands Nov 6, 2015 $2.4995% (96%)100,000 .. 200,0000.61%05:03 (03:22)
8 Hegemony Gold: Wars of Ancient Greece Mar 30, 2012 $4.9493% (95%)20,000 .. 50,0000%00:00 (00:00)
9 Darknet Jun 8, 2017 $9.89N/A (N/A)0 .. 20,0000%00:00 (00:00)
10 Templar Battleforce Sep 21, 2015 $4.9993% (95%)20,000 .. 50,0000%00:00 (00:00)
11 Chicken Invaders 2 Mar 4, 2016 $1.9993% (95%)0 .. 20,0000%00:00 (00:00)
12 Outcast 1.1 Dec 18, 2014 $1.7993% (95%)20,000 .. 50,0000%00:00 (00:00)
13 PixelJunk Shooter Nov 11, 2013 $1.3493% (95%/73%)100,000 .. 200,0000%00:00 (00:00)
14 Flywrench Aug 24, 2015 $3.4990% (94%)0 .. 20,0000%00:00 (00:00)
15 Kalimba Apr 22, 2015 $2.4990% (94%/81%)0 .. 20,0000%00:00 (00:00)
16 Gold Rush! Classic Dec 23, 1988 $1.4990% (94%)200,000 .. 500,0001.98%22:30 (04:56)
17 Handsome Mr. Frog Aug 8, 2016 $0.4990% (94%)0 .. 20,0000%00:00 (00:00)
18 Majesty Gold HD Mar 23, 2001 $2.4990% (94%)100,000 .. 200,0000%00:00 (00:00)
19 Audio Arena Jul 25, 2016 $1.04N/A (N/A)0 .. 20,0000%00:00 (00:00)
20 Run or Die Dec 11, 2014 $0.4990% (94%)0 .. 20,0000%00:00 (00:00)
21 Stick it to The Man! Dec 13, 2013 $2.7990% (94%/83%)20,000 .. 50,0001.41%01:41 (00:33)
22 Supercharged Robot VULKAISER Jun 4, 2015 $2.4990% (94%)20,000 .. 50,0000%00:00 (00:00)
23 Neon Chrome Apr 28, 2016 $4.4990% (94%/74%)200,000 .. 500,0001.04%00:26 (00:12)
24 Eufloria HD Oct 14, 2014 $14.9987% (93%)200,000 .. 500,0000%00:00 (00:00)
25 Tallowmere Mar 3, 2015 $2.3987% (93%)20,000 .. 50,0000%00:00 (00:00)
26 Super Trench Attack! Jul 24, 2014 $0.4987% (93%)50,000 .. 100,0000.52%04:45 (01:35)
27 Major Mayhem Feb 24, 2014 $4.9987% (93%)20,000 .. 50,0000%00:00 (00:00)
28 Pharaoh Rebirth+ Mar 17, 2016 $2.9987% (93%)0 .. 20,0000%00:00 (00:00)
29 Bleed Jul 3, 2013 $1.9987% (93%)100,000 .. 200,0000.69%04:03 (01:21)
30 Adventure in the Tower of Flight Dec 23, 2015 $1.9987% (93%)0 .. 20,0000%00:00 (00:00)
31 Kick Ass Commandos Nov 17, 2016 $4.9987% (93%)20,000 .. 50,0000%00:00 (00:00)
32 The Juicer Sep 11, 2015 $0.4983% (92%)20,000 .. 50,0000%00:00 (00:00)
33 Below Kryll Sep 7, 2015 $0.9983% (92%)0 .. 20,0000%00:00 (00:00)
34 Ys VI: The Ark of Napishtim Apr 28, 2015 $5.9983% (92%)50,000 .. 100,0000%00:00 (00:00)
35 Khet 2.0 Oct 1, 2014 $2.4983% (92%)50,000 .. 100,0000%00:00 (00:00)
36 Death Ray Manta SE Sep 17, 2015 $0.7983% (92%)20,000 .. 50,0000%00:00 (00:00)
37 Anarcute Jul 12, 2016 $5.9983% (92%/79%)0 .. 20,0007.14%05:20 (03:33)
38 Super Cyborg Jul 8, 2015 $1.9983% (92%)20,000 .. 50,0000%00:00 (00:00)
39 Battle Academy 2: Eastern Front Sep 12, 2014 $9.9983% (92%/78%)0 .. 20,0000%00:00 (00:00)
40 Knightmare Tower Jun 16, 2014 $0.9983% (92%)0 .. 20,0000%00:00 (00:00)
41 Great Big War Game Aug 28, 2012 $6.99N/A (N/A)0 .. 20,0000%00:00 (00:00)
42 Clash of Puppets Dec 16, 2014 $2.9980% (91%)0 .. 20,0000%00:00 (00:00)
43 Valley Aug 24, 2016 $3.9980% (91%)100,000 .. 200,0004.67%02:40 (02:15)
44 Ace of Seafood Apr 8, 2016 $5.9980% (91%)0 .. 20,0000%00:00 (00:00)
45 Flashpoint Campaigns: Red Storm Player's Edition Oct 9, 2013 $14.4980% (91%)0 .. 20,0000%00:00 (00:00)
46 Blue Estate The Game Apr 8, 2015 $3.2480% (91%/59%)50,000 .. 100,0000%00:00 (00:00)
47 Armed with Wings: Rearmed Jun 1, 2017 $6.9980% (91%)20,000 .. 50,0000%00:00 (00:00)
48 Mad Bullets Jun 10, 2016 $1.9980% (91%)0 .. 20,0000%00:00 (00:00)
49 Angry Video Game Nerd II: ASSimilation Mar 29, 2016 $9.9980% (91%)20,000 .. 50,0000%00:00 (00:00)
50 Wars and Warriors: Joan of Arc Sep 3, 2015 $1.7480% (91%/60%)0 .. 20,0000%00:00 (00:00)
51 Miracle Fly Oct 26, 2015 $2.3980% (91%)20,000 .. 50,0000%00:00 (00:00)
52 Explosionade Sep 23, 2015 $3.99N/A (N/A)0 .. 20,0001.82%01:31 (00:30)
53 RIVE: Wreck, Hack, Die, Retry! Sep 13, 2016 $3.7480% (91%)200,000 .. 500,0000.8%01:37 (01:06)
54 Momodora III Jul 1, 2014 $1.9980% (91%)50,000 .. 100,0002.27%03:59 (02:39)
55 Demons with Shotguns Apr 25, 2016 $0.99N/A (N/A)0 .. 20,0000%00:00 (00:00)
56 Spider: Rite of the Shrouded Moon Aug 6, 2015 $2.9980% (91%)20,000 .. 50,0000%00:00 (00:00)
57 Dandy: Or a Brief Glimpse Into the Life of the Candy Alchemist Aug 4, 2015 $9.99N/A (N/A)0 .. 20,0000%00:00 (00:00)
58 Earth Defense Force: Insect Armageddon Dec 14, 2011 $9.9980% (91%/69%)50,000 .. 100,0001.33%10:07 (03:22)
59 Ittle Dew Jul 23, 2013 $4.9980% (91%/67%)100,000 .. 200,0000.45%01:10 (00:23)
60 Skulls of the Shogun Jul 29, 2013 $3.9980% (91%/72%)100,000 .. 200,0000%00:00 (00:00)
61 Planet of the Eyes Aug 24, 2015 $2.4976% (90%/66%)50,000 .. 100,0000%00:00 (00:00)
62 Kohan II: Kings of War Sep 21, 2004 $9.9976% (90%/81%)20,000 .. 50,0000%00:00 (00:00)
63 Death's Hangover Jan 20, 2017 $0.4976% (90%)20,000 .. 50,0002.67%02:43 (01:48)
64 Near Death Aug 2, 2016 $3.7476% (90%/70%)0 .. 20,0000%00:00 (00:00)
65 Swords and Soldiers HD Dec 2, 2010 $1.9976% (90%)50,000 .. 100,0001.93%00:22 (00:10)
66 Weird Hero Nov 18, 2016 $0.7476% (90%)0 .. 20,0000%00:00 (00:00)
67 Wild Guns Reloaded Jul 11, 2017 $9.9976% (90%)0 .. 20,0000%00:00 (00:00)
68 Apocalypse: Party's Over May 30, 2016 $2.4976% (90%)0 .. 20,0000%00:00 (00:00)
69 Silent Storm Gold Edition Sep 9, 2004 $2.4976% (90%/83%)200,000 .. 500,0000.88%01:19 (00:26)
70 Headlander Jul 25, 2016 $5.9976% (90%/74%)100,000 .. 200,0000%00:00 (00:00)
71 Kohan: Ahriman's Gift Nov 6, 2001 $9.99N/A (N/A/79%)0 .. 20,0000%00:00 (00:00)
72 Superstatic Sep 15, 2015 $0.99N/A (N/A)0 .. 20,0000%00:00 (00:00)
73 Sneaky Sneaky Nov 12, 2014 $4.9973% (89%/63%)0 .. 20,0000%00:00 (00:00)
74 Warhammer 40,000: Dawn of War – Winter Assault Jan 1, 2006 $3.2473% (89%)500,000 .. 1,000,0000.19%00:34 (00:11)
75 Fort Meow Jun 25, 2015 $1.5973% (89%)0 .. 20,0000%00:00 (00:00)
76 Command: Northern Inferno Oct 22, 2015 $9.79N/A (N/A)0 .. 20,0000%00:00 (00:00)
77 Spectromancer Oct 15, 2008 $9.9973% (89%)20,000 .. 50,0000%00:00 (00:00)
78 MoonBase Commander Aug 13, 2002 $1.4973% (89%/77%)20,000 .. 50,0000%00:00 (00:00)
79 Codename: Panzers, Phase Two Feb 18, 2016 $3.74N/A (N/A/80%)20,000 .. 50,0000%00:00 (00:00)
80 Zombo Buster Rising Oct 2, 2016 $0.9973% (89%)0 .. 20,0000%00:00 (00:00)
81 Lethe - Episode One Aug 1, 2016 $2.9973% (89%)0 .. 20,0005.88%06:04 (05:22)
82 Reverse Crawl Sep 24, 2015 $2.0373% (89%)20,000 .. 50,0000%00:00 (00:00)
83 Tcheco in the Castle of Lucio Jun 22, 2015 $0.4973% (89%)50,000 .. 100,0000%00:00 (00:00)
84 CastleStorm Jul 29, 2013 $2.4973% (89%/73%)100,000 .. 200,0000.55%01:13 (00:24)
85 Amaranthine Apr 6, 2016 $0.8973% (89%)0 .. 20,0000%00:00 (00:00)
86 Lethal VR Nov 8, 2016 $3.7470% (88%/66%)0 .. 20,0000%00:00 (00:00)
87 Earn to Die 2 May 5, 2016 $4.9970% (88%)0 .. 20,0000%00:00 (00:00)
88 Anodyne Mar 22, 2013 $3.3970% (88%/75%)100,000 .. 200,0000%00:00 (00:00)
89 Super Furball May 13, 2014 $0.91N/A (N/A)0 .. 20,0000%00:00 (00:00)
90 Greed Corp Dec 10, 2010 $9.9970% (88%/76%)200,000 .. 500,0000%00:00 (00:00)
91 Battlepillars Gold Edition Apr 28, 2014 $2.4970% (88%)20,000 .. 50,0000%00:00 (00:00)
92 The Fall May 30, 2014 $1.9970% (88%/76%)200,000 .. 500,0000.66%01:08 (00:45)
93 Avoid - Sensory Overload Apr 8, 2014 $0.9970% (88%)0 .. 20,0000%00:00 (00:00)
94 Atom Zombie Smasher Mar 14, 2011 $7.9970% (88%/75%)200,000 .. 500,0000%00:00 (00:00)
95 The Way May 20, 2016 $3.7470% (88%/67%)20,000 .. 50,0002.65%05:44 (05:43)
96 Graviteam Tactics: Mius-Front Mar 4, 2016 $26.2470% (88%)0 .. 20,0000%00:00 (00:00)
97 Syrian Warfare Feb 21, 2017 $4.9468% (87%)50,000 .. 100,0006.67%05:19 (03:32)
98 Spooky Cats Jun 4, 2015 $0.7468% (87%)20,000 .. 50,0000%00:00 (00:00)
99 Blacksea Odyssey Jun 1, 2016 $4.9968% (87%/74%)0 .. 20,0000%00:00 (00:00)
100 Neon Shadow Aug 25, 2016 $4.99N/A (N/A)0 .. 20,0000%00:00 (00:00)
101 Mr. Shifty Apr 13, 2017 $4.9468% (87%)50,000 .. 100,0001.4%02:00 (01:30)
102 Sang-Froid - Tales of Werewolves Apr 5, 2013 Free68% (87%/79%)200,000 .. 500,0000.41%00:34 (00:12)
103 The Tiny Tale 2 Jan 30, 2015 $1.74N/A (N/A)0 .. 20,0000%00:00 (00:00)
104 Bullet Sorrow VR Apr 17, 2017 $19.9968% (87%)0 .. 20,0000%00:00 (00:00)
105 TRON 2.0 Aug 22, 2003 $3.4968% (87%/84%)50,000 .. 100,0000%00:00 (00:00)
106 Supreme Commander Feb 20, 2007 $3.2468% (87%/86%)500,000 .. 1,000,0000.51%07:02 (07:00)
107 Shadow Blade: Reload Aug 10, 2015 $4.4968% (87%/70%)20,000 .. 50,0000.99%04:08 (01:22)
108 Civilization IV: Warlords Jul 24, 2006 $4.9968% (87%/84%)1,000,000 .. 2,000,0000%00:00 (00:00)
109 Ghost Master Aug 23, 2003 $0.7465% (86%/81%)100,000 .. 200,0000%00:00 (00:00)
110 Arcane Sorcery Sep 15, 2015 $4.99N/A (N/A)0 .. 20,0000%00:00 (00:00)
111 Rush for Berlin Gold Oct 29, 2009 $2.4965% (86%/76%)20,000 .. 50,0000%00:00 (00:00)
112 Star Ruler Sep 20, 2010 $2.4965% (86%)100,000 .. 200,0000%00:00 (00:00)
113 Super Chibi Knight Jun 24, 2015 $2.4965% (86%)20,000 .. 50,0000%00:00 (00:00)
114 Meltdown Jun 5, 2014 $2.4465% (86%)50,000 .. 100,0000%00:00 (00:00)
115 Age of Wonders Shadow Magic Oct 2010 $2.4965% (86%/82%)100,000 .. 200,0000.97%01:22 (00:27)
116 Executive Assault Jul 17, 2015 $9.7465% (86%)20,000 .. 50,0000%00:00 (00:00)
117 Time Rifters Oct 21, 2014 $3.9965% (86%)0 .. 20,0000%00:00 (00:00)
118 The Haunted: Hells Reach Oct 24, 2011 $1.7965% (86%/51%)50,000 .. 100,0000%00:00 (00:00)
119 N2O: Nitrous Oxide Jun 29, 2015 $4.99N/A (N/A)0 .. 20,0000%00:00 (00:00)
120 VelocityUltra Dec 12, 2013 $4.9965% (86%)50,000 .. 100,0000.65%02:21 (00:47)
121 Concealed Intent Aug 2, 2016 $2.99N/A (N/A)0 .. 20,0000%00:00 (00:00)
122 Magnifico Dec 2, 2014 $1.2465% (86%)50,000 .. 100,0001.45%01:27 (00:29)
123 Interloper May 21, 2015 Free65% (86%/77%)50,000 .. 100,0000.31%05:32 (01:50)
124 Ballistic Tanks Sep 20, 2016 $0.9962% (85%)0 .. 20,0000%00:00 (00:00)
125 ShootMania Storm Apr 10, 2013 $6.7962% (85%/76%)50,000 .. 100,0000%00:00 (00:00)
126 Romance of the Three Kingdoms Ⅴ with Power Up Kit / 三國志Ⅴ with パワーアップキット Apr 18, 2017 $19.99N/A (N/A)0 .. 20,0000%00:00 (00:00)
127 Slash or Die Jun 3, 2016 $1.1962% (85%)50,000 .. 100,0000%00:00 (00:00)
128 ENSLAVED: Odyssey to the West Premium Edition Oct 24, 2013 $4.9962% (85%/70%)200,000 .. 500,0000.21%00:13 (00:04)
129 CRYPTARK Jun 20, 2017 $3.7462% (85%/80%)50,000 .. 100,0001.67%00:41 (00:13)
130 Steel Rain Dec 3, 2015 $2.7962% (85%)0 .. 20,0000%00:00 (00:00)
131 NOBUNAGA'S AMBITION: Souzou (Traditional Chinese version) Aug 2014 $17.1962% (85%)20,000 .. 50,00014.29%08:18 (05:32)
132 Legend (1994) Nov 10, 2015 $2.49N/A (N/A)0 .. 20,0000%00:00 (00:00)
133 Rooks Keep Dec 5, 2014 $2.7160% (84%)20,000 .. 50,0000%00:00 (00:00)
134 Foresight Nov 28, 2014 $2.99N/A (N/A)0 .. 20,0001.04%03:37 (01:12)
135 Western 1849 Reloaded Feb 10, 2017 $0.9960% (84%)0 .. 20,0000%00:00 (00:00)
136 Battle Group 2 Jun 13, 2014 $0.7960% (84%)50,000 .. 100,0000.96%01:26 (00:28)
137 Act of War: Direct Action Mar 14, 2005 $1.1960% (84%/82%)20,000 .. 50,0000%00:00 (00:00)
138 Eador: Genesis Aug 7, 2009 $1.1960% (84%)50,000 .. 100,0000%00:00 (00:00)
139 Child Of Ault Jan 24, 2017 $9.99N/A (N/A)0 .. 20,0000%00:00 (00:00)
140 Last Knight: Rogue Rider Edition Oct 3, 2014 $1.5960% (84%)20,000 .. 50,0001.3%02:01 (00:40)
141 Gurgamoth Feb 16, 2016 $4.9960% (84%)50,000 .. 100,0000.82%00:01 (00:00)
142 Dustoff Heli Rescue Mar 6, 2015 $0.5160% (84%)20,000 .. 50,0001.25%04:01 (01:20)
143 Fat Chicken Dec 4, 2014 $9.99N/A (N/A)0 .. 20,0000%00:00 (00:00)
144 Conflict Desert Storm Sep 13, 2002 $0.9760% (84%/56%)20,000 .. 50,0000%00:00 (00:00)
145 NOBUNAGA'S AMBITION: Sphere of Influence Sep 1, 2015 $23.9957% (83%/70%)20,000 .. 50,0000%00:00 (00:00)
146 Rack N Ruin Sep 1, 2015 $9.9957% (83%)0 .. 20,0001.75%00:36 (00:12)
147 Orbital Gear Aug 7, 2014 $0.9957% (83%/59%)200,000 .. 500,0000.26%02:01 (00:40)
148 Sudden Strike 2 Gold May 22, 2017 $2.9957% (83%)0 .. 20,0000%00:00 (00:00)
149 TY the Tasmanian Tiger 4 Sep 17, 2015 $1.4957% (83%)0 .. 20,0000%00:00 (00:00)
150 Ace of Protectors Jun 27, 2016 $1.19N/A (N/A)0 .. 20,0002.44%06:45 (02:15)
151 GIBZ Apr 7, 2017 $2.7957% (83%)0 .. 20,0000%00:00 (00:00)
152 Advanced Tactics Gold Apr 12, 2011 $9.8957% (83%)0 .. 20,0000%00:00 (00:00)
153 Galaxy Admirals Jan 17, 2017 $0.9957% (83%)50,000 .. 100,0000.4%01:05 (00:21)
154 Disciples Sacred Lands Gold Oct 4, 1999 $0.7957% (83%)50,000 .. 100,0000%00:00 (00:00)
155 Crush Your Enemies Jul 13, 2016 $0.9957% (83%/63%)20,000 .. 50,0000%00:00 (00:00)
156 Bulletstorm: Full Clip Edition Apr 7, 2017 $9.9957% (83%/76%)20,000 .. 50,0007.14%02:14 (01:24)
157 Delta Force 2 Oct 31, 1999 $1.2457% (83%)50,000 .. 100,0003.7%01:58 (00:39)
158 After The End: The Harvest Jun 2, 2017 $1.99N/A (N/A)20,000 .. 50,0000%00:00 (00:00)
159 Square Brawl Oct 22, 2015 $4.9955% (82%)0 .. 20,0000%00:00 (00:00)
160 Fleet Command May 15, 1999 $1.9955% (82%)20,000 .. 50,0000%00:00 (00:00)
161 htoL#NiQ: The Firefly Diary / htoL#NiQ-ホタルノニッキ- May 18, 2016 $4.9955% (82%)20,000 .. 50,0000%00:00 (00:00)
162 Shadow Ops: Red Mercury Sep 17, 2004 $1.7455% (82%/61%)20,000 .. 50,0000%00:00 (00:00)
163 She Wants Me Dead May 13, 2016 $7.9955% (82%)0 .. 20,0000%00:00 (00:00)
164 Defense Zone Jul 14, 2014 $2.39N/A (N/A)0 .. 20,00025%00:49 (00:16)
165 Toadled Sep 22, 2016 $0.4953% (81%)50,000 .. 100,0000%00:00 (00:00)
166 Blade Arcus from Shining: Battle Arena Jul 28, 2016 $11.9953% (81%)0 .. 20,0000%00:00 (00:00)
167 Junk Jack Nov 30, 2016 $11.2453% (81%)0 .. 20,0000%00:00 (00:00)
168 In Verbis Virtus Apr 3, 2015 $4.9953% (81%)50,000 .. 100,0000%00:00 (00:00)
169 Age of Wonders Oct 2010 $1.4953% (81%)100,000 .. 200,0000%00:00 (00:00)
170 Weapon of Choice Sep 23, 2015 $4.99N/A (N/A)0 .. 20,0000%00:00 (00:00)
171 Enemy Mind Jun 6, 2014 $1.9953% (81%)200,000 .. 500,0000%00:00 (00:00)
172 PixelJunk Shooter Ultimate Oct 21, 2015 $1.4953% (81%)20,000 .. 50,0000%00:00 (00:00)
173 Jim Power -The Lost Dimension Sep 30, 2015 $2.49N/A (N/A)0 .. 20,0001.89%04:48 (01:36)
174 rymdkapsel Jan 30, 2014 $7.9953% (81%/77%)0 .. 20,0000%00:00 (00:00)
175 Anomaly 2 May 15, 2013 $2.9953% (81%/77%)200,000 .. 500,0000.78%00:20 (00:20)
176 Fate of the World Feb 28, 2011 $4.9953% (81%/70%)50,000 .. 100,0000%00:00 (00:00)
177 Graviteam Tactics: Operation Star Mar 22, 2012 $22.4953% (81%)20,000 .. 50,0000%00:00 (00:00)
178 Conquest of Elysium 3 Oct 24, 2012 $2.4950% (80%)20,000 .. 50,0000%00:00 (00:00)
179 Dominions 3: The Awakening Sep 10, 2013 $4.9950% (80%/82%)0 .. 20,0000%00:00 (00:00)
180 Making History: The Calm & the Storm Mar 13, 2007 $0.7450% (80%/70%)50,000 .. 100,0002.38%01:09 (00:45)
181 Demolition Inc. Sep 19, 2011 $5.9950% (80%)50,000 .. 100,0000%00:00 (00:00)
182 ROD: Revolt Of Defense Aug 12, 2016 $0.5950% (80%)20,000 .. 50,0000%00:00 (00:00)
183 Trigger Runners Mar 3, 2016 $1.9950% (80%)0 .. 20,0000%00:00 (00:00)
184 Supreme Ruler 2020 Gold Jun 17, 2008 $1.9950% (80%/65%)50,000 .. 100,0000%00:00 (00:00)
185 Cultures - 8th Wonder of the World Mar 26, 2015 $0.9950% (80%)50,000 .. 100,0000%00:00 (00:00)
186 Run Rabbit Run Mar 31, 2016 $2.6750% (80%)0 .. 20,0000%00:00 (00:00)
187 Gatling Gears Aug 30, 2011 $9.9950% (80%)20,000 .. 50,0001.69%04:17 (01:25)
188 7,62 High Calibre Aug 24, 2007 $1.2450% (80%)50,000 .. 100,0000%00:00 (00:00)
189 Monday Night Combat Jan 24, 2011 $0.7450% (80%/82%)200,000 .. 500,0000%00:00 (00:00)
190 Tiki Man Jun 5, 2015 $0.550% (80%)20,000 .. 50,0000%00:00 (00:00)
191 Age of Gladiators Feb 25, 2016 $2.9950% (80%)20,000 .. 50,0000%00:00 (00:00)
192 Zeno Clash 2 Apr 30, 2013 $2.9950% (80%)200,000 .. 500,0000.24%01:36 (00:32)
193 Ninjahtic Jul 6, 2015 $0.7950% (80%)0 .. 20,0000%00:00 (00:00)
194 Bloodsports.TV Mar 30, 2015 $2.4950% (80%/69%)50,000 .. 100,0000.8%00:01 (00:00)
195 Fantasy Wars Aug 6, 2010 $1.2450% (80%/67%)50,000 .. 100,0000%00:00 (00:00)
196 Interplanetary May 12, 2015 N/A50% (80%)100,000 .. 200,0000%00:00 (00:00)
197 Perimeter May 21, 2004 $0.9950% (80%/77%)20,000 .. 50,0001.56%01:27 (00:57)
198 Legends of Callasia Jun 10, 2016 Free50% (80%)50,000 .. 100,0000%00:00 (00:00)
199 Gun Metal Sep 23, 2003 $1.0150% (80%)200,000 .. 500,0000.16%02:08 (00:42)
200 Zombie Party Jun 10, 2016 $1.9948% (79%)100,000 .. 200,0000%00:00 (00:00)
201 Nuclear Dawn Sep 26, 2011 $1.7948% (79%/71%)200,000 .. 500,0001.23%03:03 (03:51)
202 Protoshift Jan 15, 2016 $0.9948% (79%)0 .. 20,0000%00:00 (00:00)
203 Envoy Mar 17, 2016 $0.4948% (79%)50,000 .. 100,0000%00:00 (00:00)
204 Afghanistan '11 Mar 23, 2017 $19.7948% (79%)0 .. 20,0000%00:00 (00:00)
205 Ironcast Mar 26, 2015 $7.4948% (79%/75%)20,000 .. 50,0000%00:00 (00:00)
206 Defense Zone 3 Ultra HD Dec 14, 2016 $2.3948% (79%)0 .. 20,0000%00:00 (00:00)
207 Blue Effect VR Feb 8, 2017 $7.4948% (79%)0 .. 20,0000%00:00 (00:00)
208 Vietnam ‘65 Mar 5, 2015 $4.8948% (79%/81%)0 .. 20,0000%00:00 (00:00)
209 Caster Mar 19, 2009 $1.9948% (79%)200,000 .. 500,0000.42%01:44 (01:09)
210 Battlezone Gold Edition May 11, 2017 $17.4948% (79%)0 .. 20,0000%00:00 (00:00)
211 Advent Rising Aug 9, 2005 $3.9948% (79%/70%)20,000 .. 50,0001%00:05 (00:01)
212 Locoland Nov 22, 2003 $0.4948% (79%)0 .. 20,0000%00:00 (00:00)
213 Star Wolves 3: Civil War Mar 2, 2010 $1.2448% (79%)100,000 .. 200,0000%00:00 (00:00)
214 TRON RUN/r Feb 16, 2016 $5.9948% (79%)0 .. 20,0000%00:00 (00:00)
215 TASTEE: Lethal Tactics May 10, 2016 $3.7448% (79%)20,000 .. 50,0002.04%01:27 (00:29)
216 David. Mar 14, 2014 $0.5948% (79%)50,000 .. 100,0000%00:00 (00:00)
217 Fortified Feb 3, 2016 $2.9948% (79%)500,000 .. 1,000,00018.36%03:39 (04:01)
218 Anomaly Warzone Earth Mobile Campaign Nov 6, 2013 $0.9948% (79%)100,000 .. 200,0000%00:00 (00:00)
219 Battle Mages: Sign of Darkness Apr 13, 2006 $0.4948% (79%)20,000 .. 50,0000%00:00 (00:00)
220 Aeon Command Jul 3, 2014 $0.7446% (78%)20,000 .. 50,0000%00:00 (00:00)
221 Making History II: The War of the World Jun 22, 2010 $7.4946% (78%/38%)20,000 .. 50,0002.17%05:04 (01:41)
222 Tank Destroyer Mar 9, 2017 $0.546% (78%)20,000 .. 50,0000%00:00 (00:00)
223 The Legend of Dark Witch Dec 1, 2015 $2.4946% (78%)20,000 .. 50,0000%00:00 (00:00)
224 Umihara Kawase Shun: Steam Edition Nov 24, 2015 $5.99N/A (N/A)0 .. 20,0000%00:00 (00:00)
225 Zombie Killtime Aug 4, 2015 $1.99N/A (N/A)0 .. 20,0000%00:00 (00:00)
226 Mysterium: A Psychic Clue Game Jan 12, 2017 $9.9946% (78%)50,000 .. 100,0000.53%00:01 (00:00)
227 Starscape Mar 27, 2003 $1.9946% (78%)20,000 .. 50,0000%00:00 (00:00)
228 PAC-MAN and the Ghostly Adventures Oct 29, 2013 $4.9946% (78%)0 .. 20,0000%00:00 (00:00)
229 Strike Suit Zero: Director's Cut Apr 8, 2014 $3.9946% (78%)20,000 .. 50,0000%00:00 (00:00)
230 Dead Rising 2: Off the Record Oct 11, 2011 $5.9946% (78%/66%)200,000 .. 500,0000.65%01:29 (01:28)
231 Deadly 30 Jan 8, 2014 $1.2446% (78%)100,000 .. 200,0000%00:00 (00:00)
232 Warhammer 40,000: Armageddon Nov 26, 2014 $9.5946% (78%/68%)20,000 .. 50,0005.88%05:02 (01:40)
233 Star Realms Mar 8, 2016 Free46% (78%)100,000 .. 200,0001.32%00:01 (00:00)
234 Vector Strain Dec 9, 2015 $1.49N/A (N/A)20,000 .. 50,0000%00:00 (00:00)
235 King of Dragon Pass Jul 28, 2015 $3.5946% (78%)20,000 .. 50,0000.92%00:01 (00:00)
236 Pharaonic Apr 28, 2016 $3.7446% (78%)20,000 .. 50,0000%00:00 (00:00)
237 Mold on Pizza Sep 25, 2015 $5.9946% (78%)0 .. 20,0000%00:00 (00:00)
238 Heroes of Might & Magic V: Hammers of Fate Nov 14, 2006 $2.4944% (77%/66%)200,000 .. 500,0000%00:00 (00:00)
239 Sky Gamblers: Storm Raiders Jan 7, 2015 $3.3944% (77%)0 .. 20,0000%00:00 (00:00)
240 Dangerous Waters Feb 7, 2006 $2.9944% (77%/82%)50,000 .. 100,0000%00:00 (00:00)
241 A.R.E.S. Extinction Agenda EX Oct 3, 2014 $1.9944% (77%)0 .. 20,0000%00:00 (00:00)
242 Bet On Soldier Sep 26, 2005 $1.9944% (77%)100,000 .. 200,0000%00:00 (00:00)
243 McDROID Sep 5, 2014 $9.9944% (77%)0 .. 20,0000%00:00 (00:00)
244 The Political Machine 2016 Feb 4, 2016 $4.9944% (77%)50,000 .. 100,0000.94%00:15 (00:05)
245 Olympia Rising Jul 23, 2015 $4.9944% (77%)0 .. 20,0000%00:00 (00:00)
246 Curse of the Crescent Isle DX Aug 21, 2015 $1.5444% (77%)0 .. 20,0000%00:00 (00:00)
247 A Blind Legend Apr 7, 2016 $3.4944% (77%)0 .. 20,0000%00:00 (00:00)
248 Starchaser: Priestess of the Night Sky Jul 24, 2015 $3.29N/A (N/A)0 .. 20,0000%00:00 (00:00)
249 Chaser Aug 22, 2003 $1.2444% (77%/66%)100,000 .. 200,0000%00:00 (00:00)
250 Fist Puncher Jun 21, 2013 $0.9943% (76%/73%)20,000 .. 50,0000%00:00 (00:00)
251 Rocketbirds 2 Evolution Jan 26, 2017 $9.9943% (76%)0 .. 20,0000%00:00 (00:00)
252 Z Jul 4, 2014 $0.6943% (76%)100,000 .. 200,0002.88%04:45 (05:58)
253 Corgi Warlock Dec 3, 2015 $0.4943% (76%)20,000 .. 50,0000%00:00 (00:00)
254 Star Hammer: The Vanguard Prophecy Jun 4, 2015 $4.9943% (76%/69%)0 .. 20,0000%00:00 (00:00)
255 Rocket Knight May 11, 2010 $14.9943% (76%/63%)0 .. 20,0000%00:00 (00:00)
256 Riddled Corpses Jun 2, 2015 $1.9943% (76%)20,000 .. 50,0002.35%74:34 (49:10)
257 Livelock Aug 30, 2016 $2.4943% (76%/73%)20,000 .. 50,0005.88%00:45 (00:59)
258 Painkiller Hell & Damnation Oct 31, 2012 $4.9943% (76%/64%)500,000 .. 1,000,0000.71%02:14 (01:58)
259 Spirits of Xanadu Mar 26, 2015 $0.9943% (76%)20,000 .. 50,0001.59%02:22 (00:47)
260 Warlords Battlecry III Jan 22, 2016 $5.9943% (76%/73%)0 .. 20,0000%00:00 (00:00)
261 Cashtronauts Aug 31, 2016 $0.543% (76%)0 .. 20,0000%00:00 (00:00)
262 Extravaganza Rising Jul 21, 2016 N/AN/A (N/A)20,000 .. 50,0000%00:00 (00:00)
263 Deadlings: Rotten Edition Nov 11, 2014 $3.9943% (76%)50,000 .. 100,0000%00:00 (00:00)
264 BloodRayne Sep 9, 2003 $2.9943% (76%/65%)50,000 .. 100,0000%00:00 (00:00)
265 Civil War II Sep 17, 2013 $14.7943% (76%)0 .. 20,0000%00:00 (00:00)
266 Heroes of Arca Feb 16, 2017 Free43% (76%)0 .. 20,0000%00:00 (00:00)
267 Victory At Sea Aug 8, 2014 $4.9943% (76%)20,000 .. 50,0000%00:00 (00:00)
268 Velocity 2X Aug 19, 2015 $4.9943% (76%)50,000 .. 100,0000%00:00 (00:00)
269 The Superfluous May 19, 2017 $1.24N/A (N/A)0 .. 20,0000%00:00 (00:00)
270 WARSHIFT Oct 12, 2016 $6.4941% (75%)20,000 .. 50,0000%00:00 (00:00)
271 Othello Aug 5, 2016 $2.4941% (75%)0 .. 20,0000%00:00 (00:00)
272 Onechanbara Z2: Chaos Jun 2, 2016 $19.9941% (75%)0 .. 20,0000%00:00 (00:00)
273 AirMech Command Mar 8, 2017 $6.5941% (75%)0 .. 20,0000%00:00 (00:00)
274 Albino Lullaby: Episode 1 Sep 15, 2015 $9.9941% (75%)20,000 .. 50,0000%00:00 (00:00)
275 Monster Monpiece Mar 14, 2017 $3.9941% (75%)20,000 .. 50,0002.38%00:10 (00:03)
276 Battle Time Sep 29, 2016 $0.4941% (75%)50,000 .. 100,0000%00:00 (00:00)
277 Platformines Mar 28, 2014 $2.9941% (75%/67%)100,000 .. 200,0000%00:00 (00:00)
278 Commander: The Great War Nov 12, 2012 $9.8941% (75%)0 .. 20,0000%00:00 (00:00)
279 Perimeter: Emperor's Testament Aug 29, 2006 $0.99N/A (N/A/72%)20,000 .. 50,0000%00:00 (00:00)
280 GEARGUNS Tank offensive Sep 20, 2016 $7.9941% (75%)20,000 .. 50,0000%00:00 (00:00)
281 Zoo Empire Sep 3, 2015 $1.74N/A (N/A/59%)0 .. 20,0000%00:00 (00:00)
282 CivCity: Rome Jul 24, 2006 $2.4941% (75%/67%)50,000 .. 100,0000%00:00 (00:00)
283 Master Reboot Oct 29, 2013 $4.4941% (75%/59%)50,000 .. 100,0000%00:00 (00:00)
284 FIVE: Champions of Canaan Sep 27, 2016 $0.9941% (75%)0 .. 20,0000%00:00 (00:00)
285 BossConstructor Oct 24, 2016 $7.4941% (75%)0 .. 20,0000%00:00 (00:00)
286 Pick a Hero Jun 9, 2016 $0.79N/A (N/A)0 .. 20,0008.33%00:01 (00:00)
287 Hunting Unlimited 2008 Sep 1, 2007 $3.49N/A (N/A)20,000 .. 50,0000%00:00 (00:00)
288 Smell Of Death Jul 4, 2016 $9.9941% (75%)0 .. 20,0000%00:00 (00:00)
289 Viktor Jun 13, 2014 $1.1939% (74%)20,000 .. 50,0000%00:00 (00:00)
290 Vampire of the Sands Jul 17, 2015 $0.4939% (74%)20,000 .. 50,0000%00:00 (00:00)
291 FEIST Jul 23, 2015 $3.9939% (74%)20,000 .. 50,0000%00:00 (00:00)
292 Banzai Escape Feb 29, 2016 $5.9939% (74%)0 .. 20,0000%00:00 (00:00)
293 Divinity: Dragon Commander Aug 6, 2013 $3.9939% (74%)200,000 .. 500,0000.86%04:30 (03:00)
294 Phoning Home Feb 7, 2017 $4.5939% (74%/61%)20,000 .. 50,0001.82%00:41 (00:13)
295 Sid Meier’s Ace Patrol Aug 27, 2013 $1.2439% (74%)500,000 .. 1,000,0000.69%02:47 (02:14)
296 Distant Worlds: Universe May 23, 2014 $19.7939% (74%/81%)50,000 .. 100,0004.76%137:21 (45:47)
297 TableTop Soccer Apr 22, 2016 $0.9939% (74%)0 .. 20,0000%00:00 (00:00)
298 Ubersoldier II Jul 22, 2008 $1.4939% (74%/62%)100,000 .. 200,0000%00:00 (00:00)
299 LEGO Indiana Jones 2: The Adventure Continues Feb 18, 2010 $6.7939% (74%/66%)50,000 .. 100,0000%00:00 (00:00)
300 Bubsy Two-Fur Dec 17, 2015 $1.9939% (74%)0 .. 20,0000%00:00 (00:00)
301 Making History: The Great War Jan 29, 2015 $14.9939% (74%)20,000 .. 50,0003.23%04:45 (01:35)
302 Cross of the Dutchman Sep 10, 2015 $3.1437% (73%/59%)20,000 .. 50,0001.79%00:40 (00:13)
303 Supreme Ruler Ultimate Oct 17, 2014 $7.9937% (73%)20,000 .. 50,0000%00:00 (00:00)
304 The Aquatic Adventure of the Last Human Jan 19, 2016 $1.9937% (73%/76%)0 .. 20,0000%00:00 (00:00)
305 Rex Rocket Aug 5, 2014 $4.9937% (73%)20,000 .. 50,0000%00:00 (00:00)
306 Death by Game Show Jan 22, 2016 $4.9937% (73%)20,000 .. 50,0001.37%00:54 (00:18)
307 Alarameth TD Jun 23, 2015 $1.24N/A (N/A)0 .. 20,0000%00:00 (00:00)
308 VRZ: Torment May 18, 2017 $4.9937% (73%)0 .. 20,0000%00:00 (00:00)
309 Codex of Victory Mar 16, 2017 $3.7437% (73%)0 .. 20,0000%00:00 (00:00)
310 Retrovirus Jan 31, 2013 $2.4937% (73%/70%)20,000 .. 50,0000%00:00 (00:00)
311 rooMaze Mar 3, 2017 $0.7935% (72%)100,000 .. 200,0000%00:00 (00:00)
312 Lux Delux May 1, 2015 $3.0935% (72%)20,000 .. 50,0001.61%01:30 (00:30)
313 Rise & Shine Jan 13, 2017 $7.4935% (72%)20,000 .. 50,0000%00:00 (00:00)
314 Wyv and Keep: The Temple of the Lost Idol Aug 8, 2014 $1.4935% (72%)20,000 .. 50,0000%00:00 (00:00)
315 Cast of the Seven Godsends - Redux Jul 20, 2015 $1.9935% (72%)20,000 .. 50,0000%00:00 (00:00)
316 Lost Planet: Extreme Condition Jun 26, 2007 $2.9935% (72%/66%)200,000 .. 500,0000%00:00 (00:00)
317 Gold Rush! Anniversary Nov 7, 2014 $2.9935% (72%)100,000 .. 200,0000%00:00 (00:00)
318 Airship Dragoon Aug 26, 2014 $9.99N/A (N/A)0 .. 20,0000%00:00 (00:00)
319 Heaven Forest NIGHTS Mar 14, 2017 $0.9935% (72%)100,000 .. 200,0001.93%03:41 (01:15)
320 Warp Mar 21, 2012 $2.4935% (72%)20,000 .. 50,0000%00:00 (00:00)
321 Civil War: Battle of Petersburg Feb 8, 2017 $0.4935% (72%)0 .. 20,0000%00:00 (00:00)
322 Panzer Tactics HD May 22, 2014 $2.4935% (72%/69%)20,000 .. 50,0000%00:00 (00:00)
323 There Came an Echo Feb 24, 2015 $5.9935% (72%/58%)20,000 .. 50,0000%00:00 (00:00)
324 Hot Tin Roof: The Cat That Wore A Fedora Feb 20, 2015 $7.4935% (72%/66%)100,000 .. 200,0000%00:00 (00:00)
325 Auro: A Monster-Bumping Adventure Apr 13, 2016 $4.8935% (72%)0 .. 20,0000%00:00 (00:00)
326 Tom Clancy's EndWar Feb 25, 2009 $3.3935% (72%/68%)50,000 .. 100,0000%00:00 (00:00)
327 Battle Fleet 2 Nov 20, 2014 $5.2435% (72%)20,000 .. 50,0000%00:00 (00:00)
328 Fatal Fight Jun 10, 2016 $2.9935% (72%)0 .. 20,0000%00:00 (00:00)
329 Cuban Missile Crisis May 6, 2005 $1.2435% (72%)20,000 .. 50,0000%00:00 (00:00)
330 Sengoku Jidai: Shadow of the Shogun May 19, 2016 $14.6935% (72%/80%)0 .. 20,0000%00:00 (00:00)
331 Pike and Shot : Campaigns Aug 13, 2015 $9.9935% (72%)0 .. 20,0000%00:00 (00:00)
332 Deadnaut Nov 27, 2014 $4.9935% (72%)0 .. 20,0000%00:00 (00:00)
333 Smithy Jun 3, 2016 $0.51N/A (N/A)50,000 .. 100,0000.4%04:03 (01:21)
334 King Arthur - The Role-playing Wargame Nov 24, 2009 $2.4935% (72%)200,000 .. 500,0000%00:00 (00:00)
335 Pongo May 14, 2015 $0.4935% (72%)50,000 .. 100,0000%00:00 (00:00)
336 Elliot Quest Nov 10, 2014 $9.9934% (71%)20,000 .. 50,0000%00:00 (00:00)
337 Disney Planes Aug 6, 2013 $5.99N/A (N/A)0 .. 20,0000%00:00 (00:00)
338 Elven Legacy Apr 7, 2009 $1.2434% (71%/71%)50,000 .. 100,0000%00:00 (00:00)
339 BitMaster Oct 12, 2016 $0.8934% (71%)100,000 .. 200,0000.3%02:37 (01:32)
340 The Last Federation Apr 18, 2014 $4.9934% (71%/72%)50,000 .. 100,0001.18%00:02 (00:00)
341 Space Colony: Steam Edition Apr 30, 2015 $2.9934% (71%/74%)20,000 .. 50,0001.56%00:36 (00:12)
342 Revolution Under Siege Gold Jul 2, 2015 $6.2434% (71%)0 .. 20,0000%00:00 (00:00)
343 REDCON Apr 22, 2016 $2.9934% (71%)0 .. 20,0000%00:00 (00:00)
344 A.R.E.S.: Extinction Agenda Jan 20, 2011 $0.9934% (71%/68%)100,000 .. 200,0000%00:00 (00:00)
345 Zombie Camp Jul 31, 2016 $1.99N/A (N/A)0 .. 20,0000%00:00 (00:00)
346 Pigmentone Jul 8, 2016 $0.49N/A (N/A)0 .. 20,0000%00:00 (00:00)
347 Little King's Story Aug 5, 2016 $4.9932% (70%/62%)0 .. 20,0000%00:00 (00:00)
348 Wildlife Park 2 - Crazy Zoo Mar 30, 2007 $2.79N/A (N/A)0 .. 20,0000%00:00 (00:00)
349 Jagged Alliance 2 - Wildfire Mar 8, 2004 $1.3932% (70%)1,000,000 .. 2,000,0001.7%05:45 (06:16)
350 Alea Jacta Est Sep 27, 2012 $9.7432% (70%)20,000 .. 50,0000%00:00 (00:00)
351 YAIBA: NINJA GAIDEN Z Mar 21, 2014 $5.9931% (69%/49%)20,000 .. 50,0000%00:00 (00:00)
352 Collapse Sep 25, 2008 $1.9931% (69%)50,000 .. 100,0001.54%02:52 (00:57)
353 RISK: Factions Mar 8, 2011 $2.4931% (69%/77%)50,000 .. 100,0002.63%01:04 (00:21)
354 Incandescent Jun 30, 2015 $0.4931% (69%)20,000 .. 50,0000.6%01:19 (00:26)
355 Guns n Zombies Oct 30, 2014 $0.7931% (69%)100,000 .. 200,0000.55%02:00 (00:40)
356 Strategy & Tactics: Wargame Collection Apr 22, 2016 $2.4931% (69%)20,000 .. 50,0000%00:00 (00:00)
357 Spud's Quest Jul 31, 2014 $1.59N/A (N/A)0 .. 20,0000%00:00 (00:00)
358 Warrior Kings Apr 13, 2002 $1.4931% (69%/73%)20,000 .. 50,0000%00:00 (00:00)
359 The Nightmare Cooperative Jul 16, 2014 $1.2431% (69%)50,000 .. 100,0000%00:00 (00:00)
360 1775: Rebellion Sep 29, 2016 $24.99N/A (N/A)0 .. 20,0000%00:00 (00:00)
361 UnSummoning: the Spectral Horde Dec 21, 2015 $3.99N/A (N/A)0 .. 20,0000%00:00 (00:00)
362 FIVE: Guardians of David Nov 24, 2015 $2.4931% (69%/66%)20,000 .. 50,0000%00:00 (00:00)
363 Quick Slick Deadly Sep 21, 2015 $0.4931% (69%)20,000 .. 50,0000%00:00 (00:00)
364 Sol 0: Mars Colonization Jan 15, 2016 $3.9931% (69%)20,000 .. 50,0000%00:00 (00:00)
365 Brigade E5: New Jagged Union Oct 17, 2006 $0.9931% (69%/41%)0 .. 20,0000%00:00 (00:00)
366 Warhammer 40,000: Armageddon - Da Orks Aug 18, 2016 $11.79N/A (N/A)0 .. 20,0000%00:00 (00:00)
367 ManaCollect Apr 17, 2015 $1.7429% (68%)0 .. 20,0003.13%05:20 (01:46)
368 Zombie City Defense 2 Aug 19, 2016 $2.7929% (68%)0 .. 20,0000%00:00 (00:00)
369 Survivor Squad: Gauntlets Nov 16, 2015 $0.9929% (68%)20,000 .. 50,0000%00:00 (00:00)
370 Fair Strike Feb 5, 2004 $0.51N/A (N/A/56%)0 .. 20,0000%00:00 (00:00)
371 Stonerid Dec 18, 2013 $0.4929% (68%)20,000 .. 50,0000%00:00 (00:00)
372 The Hive Aug 25, 2016 $4.9929% (68%)20,000 .. 50,0000%00:00 (00:00)
373 Theatre of War 2: Africa 1943 Apr 24, 2009 $1.2429% (68%/63%)100,000 .. 200,0000%00:00 (00:00)
374 Toren May 11, 2015 $2.4929% (68%/57%)50,000 .. 100,0000%00:00 (00:00)
375 Toy Odyssey: The Lost and Found Sep 20, 2016 $7.4929% (68%/66%)50,000 .. 100,0002.34%03:19 (04:15)
376 Space Food Truck Mar 25, 2016 $2.4929% (68%)0 .. 20,0009.09%00:37 (00:12)
377 Zafehouse: Diaries Sep 6, 2013 $0.9928% (67%)50,000 .. 100,0000%00:00 (00:00)
378 Bedlam Oct 13, 2015 $1.2928% (67%/54%)100,000 .. 200,0000.79%01:49 (01:12)
379 Chainsaw Warrior Oct 7, 2013 $1.2428% (67%)100,000 .. 200,0000%00:00 (00:00)
380 7th Legion Jan 1, 1997 $1.7428% (67%)20,000 .. 50,0000%00:00 (00:00)
381 Mad Combat Marines Jul 13, 2016 $0.4928% (67%)20,000 .. 50,0000%00:00 (00:00)
382 Nomad Fleet Apr 19, 2016 $0.9928% (67%)20,000 .. 50,0000%00:00 (00:00)
383 Kill The Plumber Dec 31, 2015 $4.9928% (67%)0 .. 20,0000%00:00 (00:00)
384 Men of War: Condemned Heroes Apr 12, 2012 $1.9926% (66%/57%)100,000 .. 200,0000%00:00 (00:00)
385 Platypus II Mar 17, 2007 $0.6926% (66%)200,000 .. 500,0000.98%01:58 (02:26)
386 Sengoku Sep 15, 2011 $2.4926% (66%/70%)100,000 .. 200,0000.85%16:28 (05:29)
387 Scourge: Outbreak Apr 2, 2014 $7.9926% (66%)100,000 .. 200,0001.09%03:20 (02:13)
388 Sky To Fly: Faster Than Wind Mar 25, 2016 $2.9926% (66%)0 .. 20,0000%00:00 (00:00)
389 Commander Cool 2 Dec 17, 2015 $0.8626% (66%)20,000 .. 50,0000%00:00 (00:00)
390 March of the Eagles Feb 18, 2013 $4.9926% (66%/71%)50,000 .. 100,0001.25%02:05 (00:41)
391 1849 May 8, 2014 $5.9926% (66%)20,000 .. 50,0000%00:00 (00:00)
392 Royal Defense Nov 6, 2014 $0.4926% (66%)50,000 .. 100,0000%00:00 (00:00)
393 The Living Dungeon Nov 2, 2015 $4.4126% (66%)0 .. 20,0000%00:00 (00:00)
394 Hunters Of The Dead Sep 4, 2014 $0.7425% (65%)20,000 .. 50,0000%00:00 (00:00)
395 Assassin’s Creed Chronicles: India Jan 12, 2016 $3.3925% (65%)20,000 .. 50,0000%00:00 (00:00)
396 Marauder Sep 10, 2009 $0.9925% (65%)50,000 .. 100,0000%00:00 (00:00)
397 Malebolgia May 6, 2015 $2.5925% (65%)0 .. 20,0000%00:00 (00:00)
398 Zombie Tycoon 2: Brainhov's Revenge Dec 9, 2013 $1.2425% (65%)50,000 .. 100,0000%00:00 (00:00)
399 Devil's Dare 悪魔の挑戦 Oct 21, 2014 $12.9925% (65%)20,000 .. 50,0000%00:00 (00:00)
400 8-Bit Commando Jul 27, 2011 $1.7925% (65%)50,000 .. 100,0000.72%00:11 (00:03)
401 Infinity Runner Jul 14, 2014 $2.7925% (65%/56%)0 .. 20,0004.76%00:03 (00:01)
402 Ground Breakers Jun 15, 2016 $2.49N/A (N/A)0 .. 20,0000%00:00 (00:00)
403 Frozen Synapse Prime Nov 14, 2014 $2.4925% (65%/83%)100,000 .. 200,0000.46%00:46 (00:15)
404 Spirit of War Mar 12, 2015 $9.9925% (65%)0 .. 20,0000%00:00 (00:00)
405 Theatre of War 2: Kursk 1943 Mar 9, 2010 $1.2425% (65%)50,000 .. 100,0000%00:00 (00:00)
406 SPACECOM Sep 17, 2014 $1.9924% (64%/68%)100,000 .. 200,0000.38%01:00 (00:20)
407 Urban Pirate Jun 17, 2016 $1.74N/A (N/A)0 .. 20,0000%00:00 (00:00)
408 Beasts Battle Jun 15, 2016 $1.5924% (64%)0 .. 20,0000%00:00 (00:00)
409 Desert Ashes Nov 10, 2014 $4.9924% (64%)20,000 .. 50,0000%00:00 (00:00)
410 Jagged Alliance: Crossfire Aug 24, 2012 $2.9924% (64%/63%)100,000 .. 200,0000%00:00 (00:00)
411 Rise: Battle Lines Nov 17, 2015 $0.4924% (64%)0 .. 20,0000%00:00 (00:00)
412 Warlock 2: The Exiled Apr 10, 2014 $4.9924% (64%/73%)50,000 .. 100,0000%00:00 (00:00)
413 Disney Pirates of the Caribbean: At Worlds End May 22, 2007 $5.9924% (64%)0 .. 20,0000%00:00 (00:00)
414 A Game of Dwarves Oct 23, 2012 $2.4924% (64%/60%)50,000 .. 100,0000.93%00:01 (00:00)
415 Link Apr 22, 2016 $4.99N/A (N/A)0 .. 20,0000%00:00 (00:00)
416 Zoo Rampage Jul 9, 2014 $3.9924% (64%)0 .. 20,0000%00:00 (00:00)
417 Revenge of Roger Rouge Apr 22, 2016 $0.74N/A (N/A)20,000 .. 50,0001.72%03:09 (03:28)
418 Battle Worlds: Kronos Nov 4, 2013 $4.9924% (64%/71%)20,000 .. 50,0000%00:00 (00:00)
419 The Seven Years War (1756-1763) Oct 30, 2015 $6.9924% (64%)0 .. 20,0000%00:00 (00:00)
420 Kaiju-A-GoGo Apr 23, 2015 $2.4924% (64%)20,000 .. 50,0000%00:00 (00:00)
421 NOBUNAGA'S AMBITION: Tendou with Power Up Kit / 信長の野望・天道 with パワーアップキット Jun 25, 2015 $27.49N/A (N/A)0 .. 20,000100%01:16 (01:16)
422 Double Dragon IV Jan 30, 2017 $3.4924% (64%/50%)0 .. 20,0000%00:00 (00:00)
423 War, the Game Jan 12, 2015 $6.9923% (63%/65%)20,000 .. 50,0000%00:00 (00:00)
424 Port Royale 2 Apr 30, 2004 $0.9923% (63%/75%)50,000 .. 100,0000%00:00 (00:00)
425 Pixel Boy and the Ever Expanding Dungeon May 30, 2014 $0.9923% (63%)20,000 .. 50,0000%00:00 (00:00)
426 Will Fight for Food: Super Actual Sellout: Game of the Hour Apr 22, 2015 $1.1923% (63%)0 .. 20,0000%00:00 (00:00)
427 Bombshell Jan 29, 2016 $34.9921% (62%)0 .. 20,0000%00:00 (00:00)
428 BattleLore: Command Nov 25, 2014 $6.9921% (62%)0 .. 20,0000%00:00 (00:00)
429 Battleplan: American Civil War Jul 4, 2014 $1.4921% (62%/66%)100,000 .. 200,0000.44%01:05 (00:37)
430 The Few Jun 18, 2014 $7.9921% (62%)20,000 .. 50,0000%00:00 (00:00)
431 Goblin Defenders: Steel‘n’ Wood Nov 23, 2015 $1.0421% (62%)20,000 .. 50,0002.67%03:02 (01:27)
432 Hyperspace Pinball Sep 30, 2015 $2.99N/A (N/A)0 .. 20,0000%00:00 (00:00)
433 Supreme Ruler: Cold War Jul 29, 2011 $1.9921% (62%/63%)20,000 .. 50,0000%00:00 (00:00)
434 Sorcerer King: Rivals Sep 22, 2016 $6.7421% (62%)20,000 .. 50,0000%00:00 (00:00)
435 Disney Epic Mickey 2: The Power of Two Nov 18, 2012 $9.9921% (62%)20,000 .. 50,0000%00:00 (00:00)
436 Freight Tycoon Inc. Aug 15, 2007 $1.2421% (62%)20,000 .. 50,0003.57%00:15 (00:05)
437 4089: Ghost Within Jan 9, 2015 $1.7921% (62%)0 .. 20,0000%00:00 (00:00)
438 Flashback Oct 1, 2013 $3.3921% (62%)20,000 .. 50,0000%00:00 (00:00)
439 My Super Tower 2 Jan 27, 2017 $0.49N/A (N/A)0 .. 20,0000%00:00 (00:00)
440 Gnumz: Masters of Defense Dec 21, 2015 $0.4920% (61%)20,000 .. 50,0001.25%05:59 (03:48)
441 Spice Road Apr 24, 2014 $3.9920% (61%)0 .. 20,0000%00:00 (00:00)
442 Purgatory Jun 22, 2016 $0.4920% (61%)200,000 .. 500,0000.14%02:22 (01:34)
443 Legions of Steel Jul 16, 2015 $4.99N/A (N/A/64%)0 .. 20,0000%00:00 (00:00)
444 Call of Duty: Black Ops - Mac Edition Sep 27, 2012 $19.9920% (61%)50,000 .. 100,0000%00:00 (00:00)
445 Eclipse: New Dawn for the Galaxy Sep 16, 2016 N/A20% (61%)0 .. 20,0000%00:00 (00:00)
446 Crazy Forest Jul 6, 2016 $0.4920% (61%)100,000 .. 200,0000.4%00:01 (00:00)
447 To End All Wars Aug 29, 2014 $11.9920% (61%/71%)0 .. 20,0000%00:00 (00:00)
448 Men of War: Vietnam Sep 8, 2011 $1.9920% (61%/68%)100,000 .. 200,0000%00:00 (00:00)
449 E.T. Armies Mar 3, 2016 $2.2420% (61%/54%)0 .. 20,0000%00:00 (00:00)
450 Merchants of Kaidan Nov 10, 2014 $1.4919% (60%)100,000 .. 200,0002.38%06:31 (09:04)
451 Skyshine's BEDLAM Sep 16, 2015 $4.9919% (60%/67%)20,000 .. 50,0002.17%08:33 (02:51)
452 Close Combat - Panthers in the Fog Nov 19, 2012 $9.9919% (60%)0 .. 20,0000%00:00 (00:00)
453 Grim Seventh Jan 20, 2017 FreeN/A (N/A)0 .. 20,0005.56%04:39 (01:33)
454 Overruled! Sep 15, 2015 $3.2419% (60%)20,000 .. 50,0000%00:00 (00:00)
455 Stay Dead Evolution Feb 4, 2015 $1.0119% (60%)20,000 .. 50,0001.18%00:01 (00:00)
456 Patrician IV - Steam Special Edition Sep 17, 2010 $3.7419% (60%/66%)100,000 .. 200,0000%00:00 (00:00)
457 Cemetery Warrior 3 Feb 3, 2017 $0.4919% (60%)50,000 .. 100,0000%00:00 (00:00)
458 Woolfe - The Red Hood Diaries Mar 17, 2015 $3.3919% (60%/55%)50,000 .. 100,0001.08%00:01 (00:00)
459 Disciples III - Renaissance Steam Special Edition Jul 16, 2010 $3.7419% (60%/56%)100,000 .. 200,0000%00:00 (00:00)
460 Ninjahtic Mind Tricks Jul 16, 2015 $0.79N/A (N/A)0 .. 20,0000%00:00 (00:00)
461 Antisquad Oct 31, 2014 $5.9918% (59%)50,000 .. 100,0000%00:00 (00:00)
462 NOBUNAGA'S AMBITION: Sphere of Influence - Ascension / 信長の野望・創造 戦国立志伝 Mar 23, 2016 $23.9918% (59%)50,000 .. 100,0000%00:00 (00:00)
463 Super Helmets on Fire DX Ultra Edition Plus Alpha Feb 15, 2016 $0.99N/A (N/A)0 .. 20,0002.63%00:30 (00:10)
464 Armada 2526 Gold Edition Feb 28, 2013 $3.5918% (59%/66%)20,000 .. 50,0000%00:00 (00:00)
465 Life in Bunker Feb 25, 2016 $7.9918% (59%)0 .. 20,0000%00:00 (00:00)
466 Woodle Tree 2: Worlds Sep 16, 2016 $1.5918% (59%)50,000 .. 100,0002.19%05:25 (03:44)
467 7 Grand Steps: What Ancients Begat Jun 7, 2013 $11.9918% (59%)100,000 .. 200,0000%00:00 (00:00)
468 Quarantine May 24, 2017 $2.9918% (59%)0 .. 20,0000%00:00 (00:00)
469 Colonial Conquest Jul 28, 2015 $3.9918% (59%)0 .. 20,0000%00:00 (00:00)
470 Prospekt Feb 18, 2016 $2.4918% (59%)20,000 .. 50,0005.56%72:31 (24:10)
471 Check vs Mate Aug 16, 2012 $2.9918% (59%/69%)0 .. 20,0000%00:00 (00:00)
472 VR Journey Dec 15, 2016 $0.5N/A (N/A)20,000 .. 50,0000%00:00 (00:00)
473 Hybrid Wars Sep 29, 2016 $7.1918% (59%/54%)0 .. 20,0000%00:00 (00:00)
474 Code of Princess Apr 14, 2016 $5.9918% (59%/53%)0 .. 20,0000%00:00 (00:00)
475 Ceres Oct 16, 2015 $3.9917% (58%/74%)0 .. 20,0000%00:00 (00:00)
476 Sir! I'd Like To Report A Bug! Oct 19, 2015 $0.79N/A (N/A)0 .. 20,0000%00:00 (00:00)
477 DreamBreak Jul 21, 2016 $2.3717% (58%/46%)0 .. 20,0000%00:00 (00:00)
478 Wanderlust Adventures Aug 10, 2015 $1.4917% (58%)20,000 .. 50,0000%00:00 (00:00)
479 Adventure World Aug 2, 2016 $4.99N/A (N/A)0 .. 20,0000%00:00 (00:00)
480 Dawn of Andromeda May 4, 2017 $10.1917% (58%/70%)0 .. 20,0000%00:00 (00:00)
481 Prophour23 Oct 22, 2014 $2.4917% (58%)0 .. 20,0000%00:00 (00:00)
482 Assault on Arnhem Mar 11, 2016 $9.99N/A (N/A)0 .. 20,0000%00:00 (00:00)
483 Gates of Horizon Dec 18, 2014 $1.9916% (57%)0 .. 20,0000%00:00 (00:00)
484 Rise of Venice Sep 27, 2013 $4.9916% (57%/66%)50,000 .. 100,0001.72%00:45 (00:15)
485 Defend Your Crypt Jul 21, 2016 $1.49N/A (N/A)0 .. 20,0000%00:00 (00:00)
486 Heavy Fire: Afghanistan Aug 15, 2014 $0.9816% (57%)20,000 .. 50,0000%00:00 (00:00)
487 Unearthed: Trail of Ibn Battuta - Episode 1 - Gold Edition Jan 3, 2014 $1.2416% (57%)20,000 .. 50,0000%00:00 (00:00)
488 Abalone Apr 23, 2014 $4.9915% (56%)0 .. 20,0000%00:00 (00:00)
489 Horizon Feb 6, 2014 $5.9915% (56%)50,000 .. 100,0000%00:00 (00:00)
490 Delve Deeper Sep 24, 2010 $4.9915% (56%)50,000 .. 100,0000%00:00 (00:00)
491 Pain Train Jan 11, 2017 $0.4914% (55%)50,000 .. 100,0000.85%04:10 (01:23)
492 Sovereignty: Crown of Kings Feb 2, 2017 $6.2414% (55%)0 .. 20,0000%00:00 (00:00)
493 BC Kings Sep 15, 2008 $0.9914% (55%)20,000 .. 50,0000%00:00 (00:00)
494 Crusaders: Thy Kingdom Come Oct 8, 2009 $2.49N/A (N/A)20,000 .. 50,0000%00:00 (00:00)
495 Tic-Toc-Tower Sep 28, 2015 $0.514% (54%)0 .. 20,0000%00:00 (00:00)
496 Urja Jan 9, 2015 $9.9914% (54%)20,000 .. 50,0000%00:00 (00:00)
497 Wickland Nov 14, 2014 $0.4914% (54%)50,000 .. 100,0000.95%00:06 (00:02)
498 Armada 2526 Jun 10, 2010 $2.69N/A (N/A/66%)0 .. 20,0000%00:00 (00:00)
499 Nightside Apr 2, 2015 $0.9913% (53%)20,000 .. 50,0000%00:00 (00:00)
500 Story Of the Survivor Feb 16, 2016 $2.49N/A (N/A)50,000 .. 100,0000%00:00 (00:00)
501 RESCUE 2: Everyday Heroes Jun 3, 2015 $3.9913% (53%)20,000 .. 50,0000%00:00 (00:00)
502 Smugglers 5 Apr 11, 2014 $3.9913% (53%)20,000 .. 50,0000%00:00 (00:00)
503 Defence to death May 11, 2017 $0.57N/A (N/A)50,000 .. 100,0000%00:00 (00:00)
504 Royal Bounty HD Aug 10, 2015 $2.9912% (52%)0 .. 20,0000%00:00 (00:00)
505 The Stalin Subway Oct 5, 2006 $0.5112% (52%)20,000 .. 50,0000%00:00 (00:00)
506 Meridian: New World Apr 4, 2014 $1.3912% (52%/43%)50,000 .. 100,0000%00:00 (00:00)
507 Scapeland Mar 31, 2016 $0.5112% (52%)0 .. 20,0000%00:00 (00:00)
508 Guncraft Aug 9, 2013 $2.2412% (51%/73%)100,000 .. 200,0000%00:00 (00:00)
509 MDK2 HD Jul 30, 2012 $7.4912% (51%/73%)0 .. 20,0000%00:00 (00:00)
510 Dusty Revenge:Co-Op Edition Feb 17, 2014 $4.9412% (51%)50,000 .. 100,0000%00:00 (00:00)
511 Biodrone Battle Jul 16, 2015 $0.4912% (51%)100,000 .. 200,0000.49%00:01 (00:00)
512 Castle Werewolf 3D Feb 7, 2017 $0.512% (51%)50,000 .. 100,0000%00:00 (00:00)
513 MinosMaze - The Minotaur's Labyrinth May 1, 2017 $0.49N/A (N/A)0 .. 20,0000%00:00 (00:00)
514 The Campaign Series: Fall Weiss May 30, 2014 $2.2411% (50%)20,000 .. 50,0001.49%05:03 (01:41)
515 Aegis Oct 6, 2016 $0.92N/A (N/A)0 .. 20,0000%00:00 (00:00)
516 Odd||Even Apr 6, 2016 $0.4911% (50%)20,000 .. 50,0000%00:00 (00:00)
517 Albedo: Eyes from Outer Space Apr 10, 2015 $1.4911% (50%/66%)50,000 .. 100,0000%00:00 (00:00)
518 PeriAreion Feb 19, 2015 $5.99N/A (N/A)0 .. 20,0000%00:00 (00:00)
519 Weather Lord: The Successor's Path Apr 8, 2015 $0.49N/A (N/A)0 .. 20,00014.29%01:31 (00:30)
520 No Pineapple Left Behind Feb 18, 2016 $1.74N/A (N/A/59%)0 .. 20,0000%00:00 (00:00)
521 Marvel: Ultimate Alliance 2 Jul 26, 2016 $15.9910% (49%)0 .. 20,0008.33%06:24 (04:15)
522 Kidnapped Aug 4, 2015 $0.7710% (49%)100,000 .. 200,0000.28%00:01 (00:00)
523 Aggression: Europe Under Fire May 10, 2007 $0.9910% (48%)50,000 .. 100,0007.69%00:09 (00:03)
524 Z Steel Soldiers Aug 1, 2014 $1.2910% (48%)50,000 .. 100,0000.94%04:44 (03:09)
525 Meridian: Squad 22 Aug 11, 2016 $2.9910% (48%)0 .. 20,0000%00:00 (00:00)
526 Rubber and Lead Sep 4, 2015 $4.9910% (48%)20,000 .. 50,0000.86%02:04 (00:41)
527 Synonymy Dec 12, 2014 $0.4910% (48%)0 .. 20,0000%00:00 (00:00)
528 Star Traders: 4X Empires Nov 18, 2014 $4.999% (47%)0 .. 20,0000%00:00 (00:00)
529 Crossfire: Dungeons Jan 15, 2007 $0.519% (47%)0 .. 20,0000%00:00 (00:00)
530 Disposable Heroes Mar 22, 2016 $0.499% (47%)0 .. 20,0002.56%01:30 (00:30)
531 Island Defense Jul 23, 2015 $1.999% (47%)50,000 .. 100,0000.29%00:01 (00:00)
532 Hero Generations Apr 10, 2015 $0.899% (47%)0 .. 20,0000%00:00 (00:00)
533 Blasting Agent: Ultimate Edition Aug 17, 2016 $2.99N/A (N/A)0 .. 20,0000%00:00 (00:00)
534 The Stalin Subway: Red Veil Oct 5, 2006 $0.59% (46%)50,000 .. 100,0000%00:00 (00:00)
535 Redemption: Saints And Sinners Nov 18, 2016 $0.499% (46%)50,000 .. 100,0000.91%00:18 (00:11)
536 Megamagic: Wizards of the Neon Age Apr 20, 2016 $2.999% (46%/67%)20,000 .. 50,0001.43%00:01 (00:00)
537 Magic Quest May 6, 2016 $1.99N/A (N/A)50,000 .. 100,0000.29%05:58 (01:59)
538 The Bluecoats: North vs South May 10, 2012 $0.998% (45%)50,000 .. 100,0001.3%04:16 (01:25)
539 Impire Feb 14, 2013 $4.998% (45%/45%)100,000 .. 200,0000%00:00 (00:00)
540 Carrier Command: Gaea Mission Sep 28, 2012 $6.598% (45%/60%)200,000 .. 500,0000%00:00 (00:00)
541 Hell Nov 13, 2014 $4.79N/A (N/A)0 .. 20,0000%00:00 (00:00)
542 World War 2: Time of Wrath Jun 15, 2009 $0.998% (45%)20,000 .. 50,0000%00:00 (00:00)
543 Commander: Conquest of the Americas Jul 30, 2010 $9.998% (45%/68%)50,000 .. 100,0000%00:00 (00:00)
544 Chronostorm: Siberian Border Nov 20, 2015 $0.49N/A (N/A)0 .. 20,0000%00:00 (00:00)
545 Battle Chess: Game of Kings Dec 11, 2015 $14.998% (45%)0 .. 20,0000%00:00 (00:00)
546 HitBox Jan 30, 2017 Free8% (45%)0 .. 20,0003.57%00:02 (00:00)
547 Nux Dec 26, 2006 $0.698% (44%)100,000 .. 200,0000.67%02:21 (02:58)
548 Skyward Collapse May 23, 2013 $1.248% (44%/64%)100,000 .. 200,0000%00:00 (00:00)
549 Pride of Nations Jun 8, 2011 $4.798% (44%/70%)20,000 .. 50,0000%00:00 (00:00)
550 Vendetta - Curse of Raven's Cry Nov 20, 2015 $9.898% (44%)0 .. 20,0000%00:00 (00:00)
551 DUNGEONS - Steam Special Edition Feb 10, 2011 $1.998% (44%/65%)200,000 .. 500,0000%00:00 (00:00)
552 Samudai Feb 9, 2015 $2.997% (42%)20,000 .. 50,0000%00:00 (00:00)
553 Sword of the Stars II: Enhanced Edition Nov 30, 2012 $4.997% (42%/65%)100,000 .. 200,0000%00:00 (00:00)
554 The Entente Gold Aug 11, 2003 $0.497% (42%)50,000 .. 100,0000%00:00 (00:00)
555 Burstfire Sep 24, 2015 N/A7% (42%)50,000 .. 100,0000%00:00 (00:00)
556 Lost in Paradise Aug 20, 2015 $0.987% (41%)20,000 .. 50,0000%00:00 (00:00)
557 Hydraulic Empire Jul 31, 2015 $1.997% (41%)0 .. 20,0000%00:00 (00:00)
558 Infection: Humanity's Last Gasp May 26, 2016 $9.99N/A (N/A)0 .. 20,0000%00:00 (00:00)
559 Rulers of Nations Jul 16, 2014 $9.997% (41%/63%)0 .. 20,0000%00:00 (00:00)
560 Devils & Demons Oct 6, 2015 $2.496% (40%)20,000 .. 50,0000%00:00 (00:00)
561 The Kings' Crusade Oct 8, 2010 $2.496% (40%/71%)50,000 .. 100,0000%00:00 (00:00)
562 Dead But Alive! Southern England Oct 2, 2015 $5.996% (40%)0 .. 20,0002.27%03:01 (01:00)
563 Heavy Fire: Shattered Spear Oct 23, 2015 $0.95N/A (N/A)0 .. 20,0000%00:00 (00:00)
564 R.I.P.D.: The Game Jul 16, 2013 $1.996% (40%)20,000 .. 50,0000%00:00 (00:00)
565 Strategic War in Europe Mar 21, 2014 $2.246% (40%)20,000 .. 50,0001.11%06:33 (02:11)
566 Control Craft 2 Feb 15, 2016 $0.5N/A (N/A)0 .. 20,0000%00:00 (00:00)
567 Dark Matter Oct 17, 2013 $1.796% (39%)0 .. 20,0000%00:00 (00:00)
568 Wave of Darkness Nov 5, 2015 $8.996% (39%)0 .. 20,0000%00:00 (00:00)
569 Dungeons - The Dark Lord Sep 27, 2011 $4.996% (39%/72%)100,000 .. 200,0000%00:00 (00:00)
570 Zombie Apocalypse: Escape The Undead City Jun 17, 2016 $0.56% (39%)0 .. 20,0000%00:00 (00:00)
571 Knight Adventure Oct 15, 2015 $0.99N/A (N/A)50,000 .. 100,0008.26%04:16 (04:32)
572 Tiamat X May 29, 2015 $0.495% (38%)50,000 .. 100,0000%00:00 (00:00)
573 Gratuitous Space Battles 2 Apr 16, 2015 $2.495% (38%)20,000 .. 50,0000%00:00 (00:00)
574 Mechs & Mercs: Black Talons Jan 9, 2015 $1.995% (38%)0 .. 20,0000%00:00 (00:00)
575 Risk Jun 10, 2013 $2.495% (38%)20,000 .. 50,0000%00:00 (00:00)
576 Stellar Impact Apr 12, 2012 $9.995% (37%/74%)50,000 .. 100,0002.88%04:19 (02:38)
577 Kick-Ass 2 Aug 15, 2014 $4.995% (36%)0 .. 20,0000%00:00 (00:00)
578 Urban Empire Jan 20, 2017 $7.494% (35%/62%)50,000 .. 100,0000%00:00 (00:00)
579 Shadows of War Sep 19, 2014 $0.594% (35%)20,000 .. 50,0000.71%00:01 (00:00)
580 Blue Sheep Mar 31, 2016 $1.99N/A (N/A)0 .. 20,0000%00:00 (00:00)
581 Into the Void Dec 4, 2015 $4.994% (34%)20,000 .. 50,0000%00:00 (00:00)
582 Arma Tactics Oct 1, 2013 $1.794% (34%/47%)200,000 .. 500,0001.67%01:24 (00:58)
583 Fallen: A2P Protocol Aug 14, 2015 $9.994% (34%)20,000 .. 50,0000%00:00 (00:00)
584 CTU: Counter Terrorism Unit Apr 22, 2016 $2.99N/A (N/A)0 .. 20,0000%00:00 (00:00)
585 Jagged Alliance Flashback Oct 21, 2014 $3.994% (33%)20,000 .. 50,0005.88%02:01 (00:40)
586 Ranger of the jungle Jul 18, 2016 $1.19N/A (N/A)0 .. 20,0000%00:00 (00:00)
587 Sim Junta Aug 18, 2015 $0.494% (33%)0 .. 20,0000%00:00 (00:00)
588 Disciples III - Resurrection Oct 11, 2011 $3.744% (32%/63%)100,000 .. 200,0000%00:00 (00:00)
589 Robotex Nov 18, 2014 $0.493% (31%)100,000 .. 200,0000%00:00 (00:00)
590 Zombie Zoeds May 20, 2015 $2.993% (31%)200,000 .. 500,0000.58%01:50 (01:39)
591 Psichodelya Aug 8, 2014 $0.993% (31%)100,000 .. 200,0000%00:00 (00:00)
592 Ku: Shroud of the Morrigan Mar 17, 2014 $4.993% (31%)20,000 .. 50,0000%00:00 (00:00)
593 Evopollution Apr 23, 2014 $4.993% (31%)0 .. 20,0000%00:00 (00:00)
594 Ground Pounders Jul 15, 2014 $2.49N/A (N/A)0 .. 20,0000%00:00 (00:00)
595 A Game of Thrones - Genesis Sep 29, 2011 $9.993% (31%)100,000 .. 200,0000%00:00 (00:00)
596 Power of Defense Aug 4, 2010 $9.99N/A (N/A)0 .. 20,0000%00:00 (00:00)
597 Tank Operations: European Campaign Nov 22, 2013 $4.493% (30%)20,000 .. 50,0000%00:00 (00:00)
598 Defenders of Time Nov 4, 2014 N/AN/A (N/A/55%)0 .. 20,0000%00:00 (00:00)
599 Solar Shifter EX Sep 11, 2015 $1.993% (28%)20,000 .. 50,0000%00:00 (00:00)
600 Gridberd Sep 7, 2015 $1.742% (26%)200,000 .. 500,0000.12%03:02 (01:00)
601 Hard Truck Apocalypse: Arcade / Ex Machina: Arcade May 24, 2007 $0.492% (26%)20,000 .. 50,0000%00:00 (00:00)
602 One Star Apr 17, 2017 $0.5N/A (N/A)50,000 .. 100,0000.33%01:20 (00:26)
603 Zombies on a Plane Mar 25, 2016 $1.242% (25%)0 .. 20,0000%00:00 (00:00)
604 APOX Jan 20, 2011 $14.992% (23%/48%)20,000 .. 50,0000%00:00 (00:00)
605 Elite vs. Freedom May 31, 2016 $0.492% (22%)0 .. 20,0000%00:00 (00:00)
606 The Asskickers-Steam Edition Feb 6, 2015 $1.992% (21%)0 .. 20,0000%00:00 (00:00)
607 Lords of the Black Sun Sep 12, 2014 $4.492% (21%)0 .. 20,0009.09%02:01 (00:40)
608 Human Extinction Simulator Jan 21, 2015 $4.99N/A (N/A)0 .. 20,0000%00:00 (00:00)
609 Gemini Wars Nov 2, 2012 $2.692% (19%/53%)20,000 .. 50,0000%00:00 (00:00)
610 Star Project Aug 4, 2016 $0.492% (19%)100,000 .. 200,0003.07%04:11 (04:31)
611 Tryst Sep 14, 2012 $14.99N/A (N/A/50%)0 .. 20,0000%00:00 (00:00)
612 Prison Tycoon 3: Lockdown Aug 1, 2007 $3.491% (16%)20,000 .. 50,0000%00:00 (00:00)
613 Once Bitten, Twice Dead! Jul 17, 2015 $4.991% (13%)20,000 .. 50,0000%00:00 (00:00)
614 Citadels Jul 25, 2013 $3.741% (12%/20%)20,000 .. 50,0000%00:00 (00:00)
615 Magnetic By Nature Nov 10, 2014 $9.99N/A (N/A)20,000 .. 50,0000%00:00 (00:00)
616 Bloodbath Jun 16, 2014 $4.49N/A (N/A)0 .. 20,0000%00:00 (00:00)

Owners of this game also own:

Access restricted.

This feature is only available to users with special access rights. Sorry.

If you want to proceed, you need to register or log in first and then back Steam Spy on Patreon. Look for Indie or Pro pledge.

Don't forget to use the same email as on Steam Spy!

Playtime distribution:

Access restricted.

This feature is only available to users with special access rights. Sorry.

If you want to proceed, you need to register or log in first and then back Steam Spy on Patreon. Look for Indie or Pro pledge.

Don't forget to use the same email as on Steam Spy!

Playtime (2 weeks):

Access restricted.

This feature is only available to users with special access rights. Sorry.

If you want to proceed, you need to register or log in first and then back Steam Spy on Patreon. Look for Indie or Pro pledge.

Don't forget to use the same email as on Steam Spy!

User reviews:

Login required.

Please register or log in to see this information.